Weather History for Missoula, MT

Change the Weather History Date:

Sunday, October 10, 2010

  Actual Average Record
Temperature  
Mean Temperature 60 °F 47 °F  
Max Temperature 69 °F 61 °F 78 °F (1934)
Min Temperature 51 °F 34 °F 10 °F (2009)
Degree Days  
Heating Degree Days 5 18  
Month to date heating degree days 68 158  
Since 1 July heating degree days 378 483  
Cooling Degree Days 0 0  
Month to date cooling degree days 3 0  
Year to date cooling degree days 244 332  
Growing Degree Days 8 (Base 50)    
Moisture  
Dew Point 49 °F    
Average Humidity 73    
Maximum Humidity 89    
Minimum Humidity 56    
Precipitation  
Precipitation 0.04 in 0.03 in 0.48 in (1962)
Month to date precipitation 0.91 0.29  
Year to date precipitation 13.21 11.49  
Snow  
Snow 0.00 in - - ()
Month to date snowfall 0.0  
Year to date snowfall 8.8  
Since 1 July snowfall 0.0  
Snow Depth 0.00 in    
Sea Level Pressure  
Sea Level Pressure 30.16 in    
Wind  
Wind Speed 2 mph (North)    
Max Wind Speed 30 mph    
Max Gust Speed 40 mph    
Visibility 10 miles    
Events Rain    
T = Trace of Precipitation, MM = Missing Value Source: NWS Daily Summary

Daily Weather History Graph

Daily Weather History Graph

Search for Another Location

Airport:

Trip Planner

Search our weather history database for the weather conditions in past years. The results will help you decide how hot, cold, wet, or windy it might be!

Date:

Astronomy

Oct. 10, 2010 Rise Set
Actual Time 7:47 AM MDT 6:58 PM MDT
Civil Twilight 7:16 AM MDT 7:28 PM MDT
Nautical Twilight 6:41 AM MDT 8:03 PM MDT
Astronomical Twilight 6:06 AM MDT 8:39 PM MDT
Moon 11:42 AM MDT (10/10) 8:25 PM MDT (10/10)
Length of Visible Light 12h 11m
Length of Day
11h 10m
Waxing Crescent, 12% of the Moon is Illuminated
Oct 10
Waxing Crescent
Oct 14
First Quarter
Oct 22
Full
Oct 30
Last Quarter
Nov 5
New

Hourly Weather History & Observations

Time (MDT) Temp. Dew Point Humidity Pressure Visibility Wind Dir Wind Speed Gust Speed Precip Events Conditions
12:53 AM 52.0 °F 46.0 °F 80% 30.29 in 10.0 mi Calm Calm - N/A   Overcast
1:53 AM 53.1 °F 46.0 °F 77% 30.28 in 10.0 mi East 4.6 mph - N/A   Overcast
2:53 AM 54.0 °F 46.0 °F 75% 30.27 in 10.0 mi ESE 3.5 mph - N/A   Overcast
3:53 AM 51.1 °F 48.0 °F 89% 30.27 in 10.0 mi WSW 3.5 mph - N/A   Overcast
4:53 AM 51.8 °F 46.4 °F 82% 30.28 in 10.0 mi NNW 3.5 mph - N/A   Overcast
5:53 AM 53.1 °F 46.9 °F 80% 30.26 in 10.0 mi Calm Calm - N/A   Overcast
6:53 AM 52.0 °F 48.0 °F 86% 30.25 in 10.0 mi Calm Calm - N/A   Overcast
7:53 AM 51.1 °F 48.0 °F 89% 30.25 in 10.0 mi Calm Calm - N/A   Overcast
8:53 AM 52.0 °F 46.9 °F 83% 30.25 in 10.0 mi Calm Calm - N/A   Overcast
9:53 AM 52.0 °F 48.0 °F 86% 30.25 in 10.0 mi Calm Calm - N/A   Overcast
10:53 AM 55.0 °F 46.9 °F 74% 30.24 in 10.0 mi Calm Calm - N/A   Overcast
11:53 AM 57.0 °F 48.0 °F 72% 30.22 in 10.0 mi Calm Calm - N/A   Overcast
12:53 PM 60.1 °F 46.9 °F 62% 30.19 in 10.0 mi Calm Calm - N/A   Overcast
1:53 PM 62.1 °F 48.0 °F 60% 30.16 in 10.0 mi Calm Calm - N/A   Overcast
2:53 PM 64.0 °F 48.9 °F 58% 30.12 in 10.0 mi Calm Calm - N/A   Overcast
3:53 PM 66.9 °F 50.0 °F 54% 30.09 in 10.0 mi SW 3.5 mph - N/A   Partly Cloudy
4:53 PM 66.9 °F 51.1 °F 57% 30.07 in 10.0 mi Calm Calm - N/A   Mostly Cloudy
5:53 PM 64.9 °F 53.1 °F 65% 30.06 in 10.0 mi Calm Calm - N/A   Overcast
6:53 PM 64.0 °F 52.0 °F 65% 30.04 in 10.0 mi Calm Calm - N/A   Overcast
7:53 PM 63.0 °F 53.1 °F 70% 30.04 in 10.0 mi Calm Calm - N/A   Overcast
8:53 PM 60.1 °F 54.0 °F 80% 30.04 in 10.0 mi SE 3.5 mph - 0.00 in   Scattered Clouds
9:53 PM 59.0 °F 53.1 °F 81% 30.02 in 10.0 mi ENE 5.8 mph - N/A   Mostly Cloudy
10:53 PM 57.9 °F 53.1 °F 84% 30.02 in 10.0 mi NNW 4.6 mph - N/A   Mostly Cloudy
11:05 PM 59.0 °F 51.8 °F 77% 30.06 in 10.0 mi NW 21.9 mph 27.6 mph N/A   Mostly Cloudy
11:53 PM 54.0 °F 50.0 °F 86% 30.06 in 10.0 mi North 8.1 mph - 0.03 in Rain Light Rain